Fort Knox, KY

12:32 AM EST on December 16, 2019 (GMT -0500)
Godman Army Air Field

Weather History for KFTK - October, 2019

Change the Weather History Date:

Wednesday, October 2, 2019

  Actual Average Record
Temperature  
Mean Temperature 80 °F -  
Max Temperature 95 °F 71 °F 95 °F (2019)
Min Temperature 64 °F 48 °F 35 °F (2003)
Cooling Degree Days 14    
Growing Degree Days 30 (Base 50)    
Moisture  
Dew Point 63 °F    
Average Humidity 64    
Maximum Humidity 100    
Minimum Humidity 31    
Precipitation  
Precipitation 0.00 in - - ()
Sea Level Pressure  
Sea Level Pressure 29.99 in    
Wind  
Wind Speed 3 mph (WSW)    
Max Wind Speed 15 mph    
Max Gust Speed 22 mph    
Visibility 10 miles    
Events      
Averages and records for this station are not official NWS values.
T = Trace of Precipitation, MM = Missing Value Source: NWS Daily Summary

Daily Weather History Graph

Daily Weather History Graph

Search for Another Location

Airport or City:

Astronomy

Oct. 02, 2019 Rise Set
Actual Time 7:40 AM EDT 7:25 PM EDT
Civil Twilight 7:13 AM EDT 7:51 PM EDT
Nautical Twilight 6:43 AM EDT 8:22 PM EDT
Astronomical Twilight 6:12 AM EDT 8:52 PM EDT
Moon 12:00 PM EDT (10/2) 10:23 PM EDT (10/2)
Length of Visible Light 12h 37m
Length of Day
11h 45m
Waxing Crescent, 20% of the Moon is Illuminated
Oct 2
Waxing Crescent
Oct 5
First Quarter
Oct 13
Full
Oct 21
Last Quarter
Oct 27
New

Hourly Weather History & Observations

Time (EDT) Temp. Heat Index Dew Point Humidity Pressure Visibility Wind Dir Wind Speed Gust Speed Precip Events Conditions
12:56 AM 69.1 °F - 63.7 °F 83% 30.00 in 10.0 mi Calm Calm - N/A   Clear
1:56 AM 68.0 °F - 63.7 °F 86% 29.99 in 10.0 mi Calm Calm - N/A   Clear
2:56 AM 68.5 °F - 63.5 °F 84% 29.99 in 10.0 mi Calm Calm - N/A   Clear
3:56 AM 66.6 °F - 63.5 °F 90% 29.99 in 10.0 mi SW 4.6 mph - N/A   Clear
4:56 AM 66.7 °F - 64.0 °F 91% 29.99 in 10.0 mi Calm Calm - N/A   Clear
5:56 AM 67.5 °F - 64.4 °F 90% 29.99 in 10.0 mi Calm Calm - N/A   Clear
6:31 AM 66.2 °F - 64.4 °F 94% 30.01 in 10.0 mi Calm Calm - N/A   Clear
6:56 AM 66.2 °F - 64.0 °F 93% 30.01 in 10.0 mi Calm Calm - N/A   Clear
7:53 AM 64.4 °F - 64.4 °F 100% 30.04 in 10.0 mi Calm Calm - N/A   Clear
7:56 AM 64.9 °F - 64.9 °F 100% 30.04 in 10.0 mi Calm Calm - N/A   Clear
8:54 AM 71.6 °F - 66.2 °F 83% 30.05 in 10.0 mi South 3.5 mph - N/A   Clear
8:56 AM 72.0 °F - 65.8 °F 81% 30.05 in 10.0 mi Calm Calm - N/A   Clear
9:56 AM 79.9 °F - 65.7 °F 62% 30.05 in 10.0 mi SSW 5.8 mph - N/A   Clear
10:56 AM 88.0 °F 89.6 °F 64.6 °F 46% 30.04 in 10.0 mi WSW 6.9 mph - N/A   Clear
11:56 AM 91.6 °F 92.7 °F 63.7 °F 39% 30.03 in 10.0 mi SW 12.7 mph 21.9 mph N/A   Clear
12:07 PM 91.4 °F 93.2 °F 64.4 °F 41% 30.03 in 10.0 mi West 13.8 mph 19.6 mph N/A   Partly Cloudy
12:56 PM 91.4 °F 92.8 °F 63.7 °F 40% 30.02 in 10.0 mi West 10.4 mph - N/A   Partly Cloudy
1:27 PM 91.4 °F 92.1 °F 62.6 °F 38% 30.00 in 10.0 mi WSW 11.5 mph - N/A   Partly Cloudy
1:56 PM 94.3 °F 94.9 °F 61.5 °F 34% 29.99 in 10.0 mi SW 15.0 mph 20.7 mph N/A   Partly Cloudy
2:29 PM 93.2 °F 94.1 °F 62.6 °F 36% 29.97 in 10.0 mi West 13.8 mph - N/A   Partly Cloudy
2:56 PM 94.3 °F 94.9 °F 61.5 °F 34% 29.96 in 10.0 mi WSW 10.4 mph 17.3 mph N/A   Partly Cloudy
3:56 PM 94.5 °F 94.0 °F 59.9 °F 31% 29.95 in 10.0 mi SW 6.9 mph - N/A   Clear
4:03 PM 95.0 °F 95.2 °F 60.8 °F 32% 29.95 in 10.0 mi West 12.7 mph 20.7 mph N/A   Clear
4:56 PM 94.3 °F 94.1 °F 59.9 °F 32% 29.94 in 10.0 mi WSW 5.8 mph - N/A   Clear
5:56 PM 93.2 °F 92.9 °F 59.7 °F 33% 29.93 in 10.0 mi WSW 6.9 mph - N/A   Clear
7:56 PM 78.4 °F - 63.3 °F 60% 29.96 in 10.0 mi Calm Calm - N/A   Clear
8:31 PM 78.8 °F - 62.6 °F 57% 29.97 in 10.0 mi Calm Calm - N/A   Clear
8:56 PM 75.0 °F - 63.3 °F 67% 29.97 in 10.0 mi Calm Calm - N/A   Clear
9:56 PM 73.2 °F - 62.8 °F 70% 29.97 in 10.0 mi Calm Calm - N/A   Clear
10:56 PM 71.1 °F - 62.8 °F 75% 29.97 in 10.0 mi Calm Calm - N/A   Clear
11:56 PM 70.0 °F - 61.7 °F 75% 29.96 in 10.0 mi Calm Calm - N/A   Clear